Content
SEND FEEDBACK

Daily
Averages
Monthly
Summary
United States of America

ST. LOUIS, MISSOURI


Home > North America > United States > Missouri
Elevation: 535 feet     Latitude: 38 45N     Longitude: 090 22W

WEATHER
 
SELECT A DAY
Number of Records: 196,500;   Date Range: 1/1/95 - 8/30/14
 
SHARE

PRINT THIS DATA

[ ← Previous Day ]
WEATHER ALMANAC - OCTOBER 15, 2013
[ Next Day → ]
[ °C ]   °F
Weather ElementAverageHighLow
Temperature63 °F66.9 °F (12:54 pm)52 °F (11:54 pm)
Dewpoint58.8 °F63 °F (11:54 am)48.9 °F (11:54 pm)
Humidity86.2 %94 % (8:52 am)78 % (2:54 am)
Barometer29.93 in29.99 in (1:54 am)29.88 in (2:54 pm)
Wind Speed6.6 mph10.4 mph (3:54 pm)
Weather ElementAverage
Visibility8.3 mi
Wind DirectionSSW (190 °)

Weather ElementTotal
Precipitation0.53 in
Heating Degree Days5.6 (Base 65)
Growing Degree Days9.5 (Base 50)
Averaged from 31 records on October 15, 2013
WEATHER CONDITIONS BREAKOUT
WIND DIRECTION BREAKOUT
WEATHER BY HOUR - OCTOBER 15, 2013
[ °C ]   °F
Local TimeTemperatureDewpointHumidityBarometerVisibilityWind DirectionWind SpeedGust SpeedPrecipitationEventsConditions
1:54 AM61.0 °F55.9 °F83 %29.99 in10.0 miSE (130°)6.9 mph0.00 inOvercast
2:54 AM63.0 °F55.9 °F78 %29.97 in10.0 miVariable3.5 mphOvercast
3:54 AM64.0 °F57.0 °F78 %29.96 in10.0 miVariable4.6 mph0.00 inRainLight Rain
4:54 AM63.0 °F57.0 °F81 %29.93 in10.0 miESE (110°)4.6 mph0.00 inOvercast
5:54 AM64.9 °F57.9 °F78 %29.93 in7.0 miVariable5.8 mph0.00 inOvercast
6:54 AM63.0 °F60.1 °F90 %29.93 in3.0 miESE (110°)6.9 mph0.12 inRainHeavy Rain
7:54 AM63.0 °F60.1 °F90 %29.92 in4.0 miSSE (150°)3.5 mph0.08 inRainLight Rain
8:52 AM62.6 °F60.8 °F94 %29.94 in3.0 miWest (280°)4.6 mph0.06 inRainRain
8:53 AM63.0 °F61.0 °F93 %29.94 in4.0 miWest (280°)5.8 mph0.06 inRainLight Rain
9:02 AM62.6 °F60.8 °F94 %29.94 in2.5 miVariable3.5 mph0.06 inRainHeavy Rain
9:54 AM64.0 °F62.1 °F93 %29.91 in4.0 miSouth (180°)6.9 mph0.15 inRainLight Rain
10:46 AM64.4 °F62.6 °F94 %29.92 in8.0 miSSW (200°)6.9 mph0.00 inOvercast
10:54 AM64.9 °F62.1 °F90 %29.91 in8.0 miSSW (200°)8.1 mph0.00 inOvercast
11:01 AM64.4 °F62.6 °F94 %29.92 in8.0 miSSW (200°)6.9 mphOvercast
11:12 AM64.4 °F62.6 °F94 %29.92 in8.0 miSouth (190°)8.1 mphOvercast
11:54 AM64.9 °F63.0 °F93 %29.91 in8.0 miSSW (200°)5.8 mphOvercast
12:27 PM66.2 °F62.6 °F88 %29.92 in10.0 miSW (220°)9.2 mphOvercast
12:54 PM66.9 °F63.0 °F87 %29.90 in10.0 miSW (230°)8.1 mphOvercast
1:01 PM66.2 °F62.6 °F88 %29.91 in10.0 miSW (230°)8.1 mphOvercast
1:17 PM66.2 °F62.6 °F88 %29.90 in10.0 miSW (230°)6.9 mphOvercast
1:54 PM66.9 °F62.1 °F84 %29.89 in10.0 miWSW (250°)9.2 mphOvercast
2:54 PM66.9 °F61.0 °F81 %29.88 in10.0 miSW (220°)8.1 mphOvercast
3:54 PM66.9 °F60.1 °F79 %29.90 in10.0 miWSW (250°)10.4 mphOvercast
4:54 PM66.0 °F59.0 °F78 %29.89 in10.0 miWSW (240°)5.8 mphOvercast
5:54 PM64.0 °F57.0 °F78 %29.90 in10.0 miWSW (240°)6.9 mphOvercast
6:54 PM62.1 °F55.0 °F78 %29.92 in10.0 miWest (260°)5.8 mphMostly Cloudy
7:54 PM60.1 °F53.1 °F78 %29.96 in10.0 miWest (270°)8.1 mphClear
8:54 PM55.9 °F53.1 °F90 %29.98 in10.0 miWest (260°)3.5 mphClear
9:54 PM55.9 °F51.1 °F84 %29.99 in10.0 miWSW (250°)8.1 mphClear
10:54 PM54.0 °F50.0 °F86 %29.99 in10.0 miWSW (250°)6.9 mphClear
11:54 PM52.0 °F48.9 °F89 %29.98 in10.0 miWest (260°)5.8 mphClear
Hourly data recorded from KSUS, located miles away from St. Louis, Missouri







STORIES FROM OUR PARTNERS